Terminal Aerodrome Forecast
Issued by NWS Tampa Bay Area, FL

Home | Current Version | Previous Version | Text Only | Print | Product List | Glossary On
Versions: 1 2 3 4 5 6 7 8 9 10 11 12 13 14 15 16 17 18 19 20 21 22 23 24 25 26 27 28
000
FTUS42 KTBW 080256 AAA
TAFTPA
TAF AMD
KTPA 080256Z 0803/0824 VRB03KT P6SM BKN250
     FM080600 VRB03KT P6SM SCT250
     FM081400 16005KT P6SM FEW020 SCT250
     FM081700 21007KT P6SM VCTS SCT035CB SCT250
     FM082000 24007KT P6SM VCTS SCT040CB SCT100 BKN250=

USA.gov is the U.S. government's official web portal to all federal, state and local government web resources and services.